Voltar ao catálogo

STARLINK-30086

AtivoComunicaçõesVLEO
NORAD 56297·PAYLOAD·🇺🇸 United States

Lançado Apr 19, 2023 de Cape Canaveral Space Force Station

Loading…

Próximas Passagens (próximas 24 horas)

TLE

AtualizadoSource: CelesTrak SupGP

Época: Sep 14, 2026, 13:48 UTC

1 56297C 23056M   26257.57548611 -.00025656  00000+0 -92939-3 0  2571
2 56297  43.0024 222.3142 0001417 272.6945 147.8687 15.27586731    15

Acompanhe STARLINK-30086 em tempo real com AllMySat

Download on the App Store